Location: ??
(35.4032°N, 139.3073°E)
Time: 03:34:30
(UTC+00:00)

Cosmos 1867 - Pass Details

Date: 13 April 2024
Orbit: 772 x 802 km, 65.0° (Epoch: 25 May)

Event Time Altitude Azimuth Distance (km) Brightness Sun altitude
Rises 18:53:20 0° 319° (NW) 3,314 6.6 -16.0°
Reaches altitude 10° 18:56:02 10° 308° (NW) 2,378 5.8 -15.5°
Maximum altitude 19:00:41 29° 250° (WSW) 1,424 4.3 -14.6°
Drops below altitude 10° 19:05:18 10° 191° (S) 2,356 5.7 -13.8°
Sets 19:07:59 0° 180° (S) 3,276 6.5 -13.3°
